EHI
0 0 0 0 0 0 0 0 0 0 0 0 0 0 0 0 0 0 0 0 0 0 0 0 0 0 0 0 0 0 0 0 0 0 0 0 0 0 0 0 0 0 0 0
0 0 0 0 0 0 0 0 0 0 0 0 0 0 0 0 0 0 0 0 0 0 0 0 0 0 0 0 0 0 0 0 0 0 0 0 0 0 0 0 0 0 0 0
0 0 0 0 0 0 0 0 0 0 0 0 0 0 0 0 0 0 0 0 0 0 0 0 0 0 0 0 0 0 0 0 0 0 0 0 0 0 0 0 0 0 0 0
0 0 0 0 0 0 0 0 0 0 0 0 0 0 0 0 0 0 0 0 0 0 0 0 0 0 0 0 0 0 0 0 0 0 0 0 0 0 0 0 0 0 0 0
0 0 0 0 0 0 0 0 0 0 0 0 0 0 0 0 0 0 0 0 0 0 0 0 0 0 0 0 0 0 0 0 0 0 0 0 0 0 0 0 0 0 0 0
0 0 0 0 0 0 0 0 0 0 0 0 0 0 0 0 0 0 0 0 0 0 0 0 0 0 0 0 0 0 0 0 0 0 0 0 0 0 0 0 0 0 0 0
0 0 0 0 0 0 0 0 0 0 0 0 0 0 0 0 0 0 0 0 0 0 0 0 0 0 0 0 0 0 0 0 0 0 0 0 0 0 0 0 0 0 0 0
0 0 0 0 0 0 0 0 0 0 0 0 0 0 0 0 0 0 0 0 0 0 0 0 0 0 0 0 0 0 0 0 0 0 0 0 0 0 0 0 0 0 0 0
0 0 0 0 0 0 0 0 0 0 0 0 0 0 0 0 0 0 0 0 0 0 0 0 0 0 0 0 0 0 0 0 0 0 0 0 0 0 0 0 0 0 0 0
0 0 0 0 0 0 0 0 0 0 0 0 0 0 0 0 0 0 0 0 0 0 0 0 0 0 0 0 0 0 0 0 0 0 0 0 0 0 0 0 0 0 0 0
0 0 0 0 0 0 0 0 0 0 0 0 0 0 0 0 0 0 0 0 0 0 0 0 0 0 0 0 0 0 0 0 0 0 0 0 0 0 0 0 0 0 0 0
0 0 0 0 0 0 0 0 0 0 0 0 0 0 0 0 0 0 0 0 0 0 0 0 0 0 0 0 0 0 0 0 0 0 0 0 0 0 0 0 0 0 0 0
0 0 0 0 0 0 0 0 0 0 0 0 0 0 0 0 0 0 0 0 0 0 0 0 0 0 0 0 0 0 0 0 0 0 0 0 0 0 0 0 0 0 0 0
0 0 0 0 0 0 0 0 0 0 0 0 0 0 0 0 0 0 0 0 0 0 0 0 0 0 0 0 0 0 0 0 0 0 0 0 0 0 0 0 0 0 0 0
0 0 0 0 0 0 0 0 0 0 0 0 0 0 0 0 0 0 0 0 0 0 0 0 0 0 0 0 0 0 0 0 0 0 0 0 0 0 0 0 0 0 0 0
0 0 0 0 0 0 0 0 0 0 0 0 0 0 0 0 0 0 0 0 0 0 0 0 0 0 0 0 0 0 0 0 0 0 0 0 0 0 0 0 0 0 0 0
0 0 0 0 0 0 0 0 0 0 0 0 0 0 0 0 0 0 0 0 0 0 0 0 0 0 0 0 0 0 0 0 0 0 0 0 0 0 0 0 0 0 0 0
0 0 0 0 0 0 0 0 0 0 0 0 0 0 0 0 0 0 0 0 0 0 0 0 0 0 0 0 0 0 0 0 0 0 0 0 0 0 0 0 0 0 0 0
0 0 0 0 0 0 0 0 0 0 0 0 0 0 0 0 0 0 0 0 0 0 0 0 0 0 0 0 0 0 0 0 0 0 0 0 0 0 0 0 0 0 0 0
0 0 0 0 0 0 0 0 0 0 0 0 0 0 0 0 0 0 0 0 0 0 0 0 0 0 0 0 0 0 0 0 0 0 0 0 0 0 0 0 0 0 0 0
0 0 0 0 0 0 0 0 0 0 0 0 0 0 0 0 0 0 0 0 0 0 0 0 0 0 0 0 0 0 0 0 0 0 0 0 0 0 0 0 0 0 0 0
0 0 0 0 0 0 0 0 0 0 0 0 0 0 0 0 0 0 0 0 0 0 0 0 0 0 0 0 0 0 0 0 0 0 0 0 0 0 0 0 0 0 0 0
0 0 0 0 0 0 0 0 0 0 0 0 0 0 0 0 0 0 0 0 0 0 0 0 0 0 0 0 0 0 0 0 0 0 0 0 0 0 0 0 0 0 0 0
0 0 0 0 0 0 0 0 0 0 0 0 0 0 0 0 0 0 0 0 0 0 0 0 0 0 0 0 0 0 0 0 0 0 0 0 0 0 0 0 0 0 0 0
0 0 0 0 0 0 0 0 0 0 0 0 0 0 0 0 0 0 0 0 0 0 0 0 0 0 0 0 0 0 0 0 0 0 0 0 0 0 0 0 0 0 0 0
0 0 0 0 0 0 0 0 0 0 0 0 0 0 0 0 0 0 0 0 0 0 0 0 0 0 0 0 0 0 0 0 0 0 0 0 0 0 0 0 0 0 0 0
0 0 0 0 0 0 0 0 0 0 0 0 0 0 0 0 0 0 0 0 0 0 0 0 0 0 0 0 0 0 0 0 0 0 0 0 0 0 0 0 0 0 0 0
Wind_Speed
7 6 3 5 6 6 8 8 8 9 9 9 5 5 6 6 6 6 7 7 7 7 7 7 7 6 6 6 5 4 3 3 3 3 3 3 3 3 3 3 4 4 4 4
5 3 4 6 8 8 9 8 9 9 10 6 4 3 4 5 5 6 7 8 8 7 7 7 7 7 7 6 5 4 4 4 3 3 2 2 2 2 2 2 3 3 4 4
5 4 3 7 7 6 5 4 5 8 8 4 5 5 5 5 5 6 7 8 8 8 7 7 7 7 6 6 6 5 4 4 4 3 2 2 1 1 2 2 2 2 3 4
3 2 6 6 1 3 4 3 4 4 4 3 5 5 4 3 3 6 7 7 7 7 7 7 7 7 6 5 5 5 5 5 4 4 3 2 2 1 2 2 2 2 2 3
2 3 8 5 1 1 3 4 3 4 5 4 3 3 3 2 3 4 5 6 6 6 6 6 7 6 6 5 5 5 5 5 5 4 3 2 2 2 2 2 2 1 2 2
2 3 6 5 3 1 2 4 2 2 3 3 3 3 4 4 5 6 5 5 6 6 6 6 7 6 5 5 6 6 6 6 5 4 3 3 3 3 2 2 2 2 2 1
4 5 8 4 3 1 1 5 3 2 3 2 2 4 4 5 5 5 5 5 5 5 6 6 6 5 5 6 6 6 6 6 5 4 3 3 3 2 2 2 2 2 2 2
3 4 8 1 2 2 4 3 3 2 2 3 3 4 4 4 4 5 5 5 5 5 6 6 6 5 5 6 7 6 6 6 5 5 4 3 3 3 3 2 1 2 2 2
5 6 3 1 2 3 2 2 3 2 3 2 3 4 4 4 4 5 5 5 5 5 6 6 6 5 5 7 6 6 5 5 5 5 4 4 3 3 3 2 2 2 2 2
4 6 3 3 3 3 2 3 4 3 2 1 2 3 4 4 4 5 5 5 5 5 6 6 7 6 6 7 6 5 5 5 5 5 5 4 3 3 2 2 2 2 2 2
5 5 5 3 3 3 3 3 3 3 2 1 2 3 3 3 4 4 5 5 5 4 5 6 7 7 7 7 6 5 5 5 4 4 4 4 4 3 3 2 3 3 2 2
5 4 4 6 4 3 3 3 3 3 3 2 2 2 3 3 3 3 4 4 5 5 5 6 6 6 6 6 5 4 5 5 4 3 3 3 3 3 6 5 6 6 5 4
4 4 3 4 4 3 3 4 3 3 2 3 3 2 2 3 3 3 4 4 5 5 5 5 6 6 6 6 5 4 4 4 3 3 3 3 3 3 3 5 7 8 8 7
3 3 4 4 4 4 3 3 3 3 3 2 2 3 2 2 3 3 4 5 5 4 4 5 5 6 6 6 5 5 4 5 4 3 3 3 3 3 2 3 4 4 6 8
4 3 3 3 3 3 3 3 4 4 3 3 3 3 3 3 3 4 4 4 4 4 4 5 5 6 6 6 5 5 4 3 3 3 3 3 3 3 2 3 3 3 4 5
5 4 3 2 3 4 4 4 4 4 4 3 3 3 3 3 3 3 4 3 4 4 5 5 5 6 6 5 5 4 4 6 5 3 3 3 3 3 3 3 3 3 3 4
3 4 4 4 4 4 4 4 3 4 3 3 4 3 3 3 3 3 4 4 3 4 4 4 5 5 5 5 4 3 3 4 6 4 3 3 3 3 3 3 3 3 3 4
2 3 3 3 3 4 5 4 4 4 3 4 3 2 2 2 3 4 4 4 4 4 4 4 5 5 4 5 4 3 3 3 3 3 3 3 3 3 3 3 3 3 3 4
3 3 3 3 3 3 3 4 4 4 4 3 3 3 2 2 3 3 3 3 4 4 5 5 7 5 4 5 5 3 3 3 3 3 3 4 4 3 3 3 3 3 3 3
4 4 4 4 4 3 3 4 3 4 3 3 3 3 3 3 3 3 3 3 3 3 4 5 4 4 4 4 5 2 3 3 3 3 3 3 3 3 3 3 3 3 3 3
5 5 5 4 4 4 4 3 3 4 4 3 3 3 3 4 3 3 3 4 4 4 4 6 4 3 3 4 4 2 2 2 2 3 3 3 3 3 3 3 3 3 3 3
4 4 5 4 4 5 4 3 3 3 4 4 3 3 3 4 4 3 3 3 4 7 4 3 3 5 5 5 2 2 2 2 2 2 3 3 3 3 4 4 4 4 4 4
4 4 4 4 4 4 4 3 3 3 3 4 4 4 3 3 3 3 4 3 3 6 4 3 5 7 7 4 2 2 3 3 3 3 3 3 3 4 4 4 4 4 4 4
4 4 4 4 3 3 4 4 4 3 3 3 3 3 3 3 3 2 3 6 8 7 3 5 8 8 7 3 2 2 3 3 3 3 3 3 3 3 4 4 4 4 4 5
3 3 3 4 3 3 4 4 4 4 3 3 4 4 3 2 3 4 4 4 7 7 4 6 8 8 4 3 3 3 3 3 4 4 3 3 4 4 4 4 4 5 5 5
3 3 3 3 3 3 3 3 3 3 3 4 4 3 3 3 3 3 3 4 5 6 4 3 4 5 3 3 3 4 4 4 5 4 4 4 5 5 5 5 6 5 5 6
3 3 3 3 3 3 3 3 3 4 4 4 4 4 4 4 4 4 4 4 4 4 4 3 3 3 4 4 4 4 4 4 4 4 4 4 4 5 5 6 6 6 6 6
Wind_Direction
259 268 251 244 249 220 211 217 225 249 256 277 293 295 305 315 323 335 336 338 335 329 327 327 327 324 325 326 330 327 317 308 296 287 268 252 242 238 228 224 227 224 210 219
282 263 253 266 260 237 234 236 242 263 274 278 296 300 315 319 325 332 330 332 331 330 329 327 326 326 328 327 330 329 325 316 318 316 301 271 256 253 244 233 226 217 212 217
271 297 319 272 248 218 218 220 212 238 255 298 320 314 303 303 317 321 320 326 329 328 323 320 318 319 319 321 328 331 329 330 330 327 321 308 300 287 274 259 246 232 221 213
273 349 251 248 191 190 203 241 228 245 277 287 275 292 290 283 311 319 321 325 325 325 324 321 321 323 321 326 331 331 330 331 334 333 329 328 329 307 292 288 267 247 237 218
219 256 274 290 293 203 208 264 252 250 287 306 311 325 312 333 338 313 310 313 314 317 317 321 324 327 329 333 337 339 334 330 330 328 327 323 322 315 312 309 299 276 258 228
201 230 248 268 296 295 137 279 292 252 279 306 347 326 293 330 334 323 322 321 322 326 330 333 333 337 341 338 340 333 326 323 325 327 326 318 316 317 325 315 300 303 315 307
220 238 262 277 304 54 149 272 307 284 277 280 262 254 281 311 321 321 321 325 330 335 338 335 336 343 346 342 333 325 329 332 337 336 331 331 339 342 340 326 333 339 327 321
199 224 260 323 86 178 241 291 306 300 287 274 278 290 299 311 318 323 328 333 338 341 339 337 341 346 346 337 328 332 339 342 343 342 340 346 354 349 348 347 348 334 328 326
208 226 271 198 221 270 292 291 292 287 286 274 288 295 307 313 318 324 329 333 338 339 338 340 344 348 341 332 332 338 346 348 345 346 350 352 353 355 355 355 348 325 323 323
260 268 278 279 294 314 306 285 292 288 283 267 278 293 308 313 325 334 337 339 341 345 343 340 340 343 337 331 334 342 347 347 348 352 355 359 356 356 356 350 342 330 329 325
263 288 311 293 288 305 320 322 325 326 306 272 269 291 301 311 317 323 331 336 342 342 337 334 336 339 340 339 338 345 346 348 351 354 354 356 0 1 357 355 345 337 324 315
259 278 274 293 309 321 322 317 316 326 328 318 283 287 303 308 312 316 324 330 334 334 333 332 335 338 338 338 338 344 347 349 348 351 352 355 353 356 2 1 359 356 351 340
281 317 305 307 328 335 321 315 318 316 306 311 312 295 298 303 312 320 322 325 324 322 324 326 332 336 336 336 339 346 343 339 339 345 348 346 348 354 354 356 5 7 4 0
315 337 322 323 328 335 338 338 344 346 337 325 319 322 318 314 318 320 318 318 319 321 324 328 332 333 331 334 342 347 343 344 344 338 338 340 343 346 348 349 350 351 355 1
335 327 293 312 333 343 352 356 356 347 345 342 335 329 322 314 312 313 316 323 330 334 332 332 333 330 334 339 346 344 341 338 336 336 339 342 346 349 351 352 351 345 346 351
329 337 338 340 338 344 350 350 343 331 331 328 325 323 316 310 314 319 326 332 334 330 327 327 324 324 331 337 340 338 337 346 348 343 345 348 350 352 353 352 352 352 351 348
335 333 336 334 334 335 331 326 321 317 320 319 314 313 322 331 333 334 332 329 322 314 315 318 315 321 329 332 333 328 330 336 346 347 348 347 349 350 347 345 345 343 340 343
300 303 310 309 315 319 321 324 324 325 322 314 315 324 330 325 314 315 318 323 328 330 324 318 317 326 330 331 331 325 326 330 335 339 341 340 344 345 346 345 343 339 334 340
343 339 335 332 325 320 321 325 327 328 328 330 331 326 315 306 303 309 316 325 329 326 321 320 329 338 329 328 336 329 332 335 339 338 335 336 344 344 342 337 332 329 326 331
350 350 347 345 345 341 329 329 333 334 334 335 334 334 330 324 322 320 320 313 297 290 299 314 321 323 324 322 331 330 337 337 335 332 333 333 331 329 327 326 325 323 323 323
344 345 345 343 340 339 334 335 338 334 335 338 332 321 316 316 320 319 318 313 313 314 317 322 328 320 319 323 329 336 332 329 327 324 324 324 322 319 317 318 318 317 317 315
336 337 337 336 337 334 333 335 331 327 331 333 329 323 321 321 322 315 296 287 304 320 328 312 312 320 330 335 336 330 326 322 318 315 314 314 314 313 312 312 309 308 308 306
328 329 332 330 326 321 326 332 329 328 325 323 320 316 309 304 306 309 312 310 310 320 327 313 321 329 337 346 340 329 321 315 309 305 303 302 301 299 300 302 301 301 301 302
330 332 328 324 324 332 335 331 330 328 318 312 313 311 307 308 310 300 297 315 325 326 327 325 332 336 340 346 331 319 311 305 301 297 295 294 293 293 293 295 297 298 296 294
324 324 329 334 335 328 323 327 331 331 329 324 320 317 310 303 301 309 313 314 322 330 330 328 333 334 336 324 317 308 302 296 295 297 295 295 292 290 290 289 289 290 292 291
321 320 318 318 316 318 324 328 327 326 327 325 324 321 319 316 309 308 311 315 317 325 328 322 321 322 321 316 310 306 303 304 308 304 296 294 291 289 288 289 288 286 285 285
325 324 323 325 327 328 325 322 318 318 318 312 311 316 321 321 320 320 319 319 319 317 316 317 316 313 312 312 310 306 303 300 298 297 295 290 288 285 284 283 283 282 282 283